[[{"header":{"parameterUnit":"m.s-1","parameterCategory":1,"la1":30.2991,"la2":30.254,"lo1":-89.0895,"lo2":-89.0444,"dy":0.0017,"dx":0.0017,"nx":28,"ny":28,"refTime":"2024-11-22T09:00:00:Z","depth":0,"parameterNumber":2,"parameterNumberName":"U-component_of_WINDS"},"data":[0,0,0,0,0,0,0,0,0,0,0,0,0,0,0,0,0,0,0,0,0,0,0,0,0,0,0,0,0,0,0,0,0,0,0,0,0,0,0,0,0,0,0,0,0,0,0,0,0,0,0,0,0,0,0,0,0,0,0.5918,0.5918,0,0.5979,0.598,0.5981,0.5996,0.5996,0.5996,0.5995,0.6058,0.606,0.6062,0,0,0,0,0,0,0,0,0,0,0,0,0,0.5812,0.5814,0.5918,0.5919,0.5919,0.5979,0.598,0.5981,0.5997,0.5996,0.5996,0.5995,0.6057,0.6059,0.6062,0,0,0,0,0,0,0,0,0,0,0,0,0,0.5864,0.5815,0.5918,0.5934,0.5936,0.5979,0.598,0.5981,0.5997,0.5996,0.5995,0.5995,0.6056,0.6059,0.6062,0.6092,0,0,0.6071,0.6073,0,0,0,0,0,0,0,0,0.5861,0.5868,0.5931,0.5933,0.5936,0.598,0.5966,0.6018,0.5997,0.5974,0.5995,0.5995,0.6032,0.6037,0.605,0.6095,0.6098,0.6072,0.6073,0.6075,0.6076,0,0,0,0,0,0,0,0.5858,0.5866,0.5942,0.5932,0.5935,0.5938,0.5945,0.5976,0.6005,0.5976,0.5977,0.5984,0.6033,0.6047,0.6051,0.6099,0.6072,0.6074,0.6076,0.6077,0.6171,0.6172,0,0,0,0,0,0,0.5851,0.5862,0.594,0.5944,0.5896,0.5941,0.5948,0.5966,0.6005,0.6011,0.5985,0.5985,0.6042,0.6048,0.6054,0.6091,0.6075,0.6078,0.6079,0.617,0.6171,0.6172,0,0,0,0,0,0,0.5849,0.5858,0.5938,0.5904,0.5914,0.5943,0.5963,0.5968,0.5981,0.6012,0.6017,0.5993,0.6042,0.6049,0.6082,0.6093,0.6079,0.6082,0.617,0.6171,0.6172,0.6166,0,0,0,0,0,0,0.5846,0.5857,0.5869,0.5904,0.5916,0.5966,0.5964,0.5969,0.5987,0.5987,0.6021,0.6026,0.6042,0.6078,0.6085,0.6097,0.6084,0.6169,0.617,0.6171,0.6165,0.6167,0.6168,0,0,0,0,0,0.5842,0.5865,0.587,0.5879,0.5932,0.5966,0.5973,0.5991,0.5987,0.6,0.6019,0.6025,0.6091,0.6081,0.609,0.6103,0.6168,0.617,0.6171,0.6165,0.6166,0.6168,0,0,0,0,0,0,0.5831,0.587,0.5876,0.5911,0.5935,0.5969,0.5985,0.5992,0.6018,0.6017,0.6038,0.6046,0.6077,0.6093,0.6082,0.6133,0.6129,0.6133,0.6122,0.6124,0.6125,0.612,0.6087,0,0,0,0,0,0.5833,0.5859,0.5891,0.5919,0.5931,0.5956,0.5972,0.5983,0.6009,0.6019,0.6041,0.6066,0.6092,0.6109,0.6135,0.6168,0.6175,0.6181,0.6182,0.6183,0.6186,0.6203,0.6206,0.6177,0.6177,0.6177,0,0,0.5837,0.5861,0.5876,0.5917,0.5938,0.5963,0.5964,0.5991,0.601,0.6023,0.6056,0.6072,0.6101,0.6134,0.615,0.6149,0.6195,0.6185,0.6185,0.6188,0.6205,0.6208,0.621,0.6178,0.6178,0.6178,0,0,0.5857,0.5878,0.5904,0.5924,0.5954,0.597,0.5976,0.6009,0.6021,0.6053,0.6064,0.6086,0.6131,0.6151,0.6167,0.6193,0.6199,0.6201,0.6207,0.6225,0.6227,0.6229,0.6238,0.6241,0.6203,0.6203,0.6203,0,0.5858,0.5897,0.5915,0.5942,0.5959,0.5972,0.5998,0.6016,0.6053,0.6065,0.6063,0.6119,0.6139,0.6177,0.6183,0.6196,0.6203,0.6197,0.6225,0.6227,0.623,0.6238,0.6241,0.6203,0.6203,0.6203,0.6203,0,0.5896,0.5923,0.5939,0.5975,0.5994,0.602,0.6041,0.6059,0.6068,0.6085,0.6117,0.6142,0.6173,0.6183,0.6192,0.6221,0.6219,0.6221,0.6217,0.6232,0.624,0.6244,0.6203,0.6203,0.6203,0.6203,0,0,0.5911,0.5956,0.5962,0.5978,0.6012,0.6033,0.6058,0.6089,0.6102,0.6128,0.6149,0.6186,0.6188,0.6206,0.6218,0.6233,0.6252,0.6233,0.6234,0.6235,0.6284,0.6282,0.6285,0.6256,0.6257,0.6257,0.6281,0,0.5935,0.5981,0.5999,0.6037,0.6061,0.6074,0.6096,0.6119,0.6135,0.6157,0.6174,0.62,0.6201,0.6212,0.6227,0.6246,0.6262,0.6245,0.6276,0.6277,0.6268,0.629,0.6288,0.6309,0.6285,0.6285,0.6286,0,0.5968,0.5994,0.6034,0.6065,0.6076,0.6095,0.6124,0.6145,0.6171,0.6182,0.6201,0.6212,0.6239,0.6234,0.6271,0.6259,0.6273,0.6284,0.6285,0.6288,0.6282,0.6293,0.6317,0.632,0.6291,0.6291,0.629,0,0.5974,0.6019,0.6048,0.6062,0.6098,0.6112,0.6127,0.6153,0.617,0.6194,0.6205,0.6233,0.6248,0.6268,0.6286,0.6281,0.6321,0.6318,0.633,0.6329,0.6337,0.6336,0.6363,0.6347,0.6347,0.6347,0.6347,0,0.5999,0.6023,0.6051,0.607,0.6097,0.6116,0.6142,0.6158,0.6181,0.6202,0.6215,0.6234,0.6257,0.6279,0.6293,0.6321,0.6328,0.6336,0.634,0.6335,0.6334,0.6344,0.6343,0.6348,0.6348,0.6347,0.6347,0,0.601,0.603,0.6063,0.6095,0.6103,0.6122,0.6149,0.6166,0.6182,0.6209,0.6216,0.6241,0.6268,0.6288,0.6323,0.6332,0.6362,0.6365,0.6353,0.6354,0.6365,0.6364,0.6399,0.6404,0.6385,0.6385,0.6385,0,0.6023,0.6042,0.6076,0.6091,0.6107,0.6131,0.6148,0.6167,0.6184,0.6215,0.6229,0.6257,0.628,0.6322,0.6343,0.6369,0.6374,0.6384,0.6378,0.6372,0.6373,0.6371,0.6373,0.6385,0.6385,0.6385,0.6385,0,0.6046,0.6055,0.6079,0.6106,0.6126,0.6148,0.6171,0.6183,0.6206,0.6224,0.6252,0.627,0.6305,0.6332,0.6361,0.6376,0.6384,0.6387,0.6391,0.6386,0.6378,0.6382,0.6355,0.6386,0.6386,0.6386,0.6386,0.6386,0.6058,0.6075,0.6101,0.6127,0.6146,0.6167,0.6185,0.6203,0.6226,0.6257,0.6267,0.6295,0.632,0.6359,0.6375,0.6397,0.6397,0.6403,0.6404,0.6405,0.6405,0.6374,0.6402,0.6402,0.6402,0.6402,0.6402,0,0.608,0.6097,0.6121,0.6152,0.6173,0.6179,0.6204,0.622,0.6245,0.6268,0.629,0.6321,0.6348,0.637,0.6398,0.6411,0.6415,0.6417,0.6416,0.6419,0.6404,0.6397,0.6413,0.6413,0.6413,0.6413,0.6413,0.6413,0.6094,0.6123,0.6135,0.6172,0.619,0.6217,0.6231,0.625,0.6268,0.6302,0.6324,0.6339,0.6362,0.639,0.6414,0.642,0.6429,0.643,0.6437,0.6422,0.6421,0.6419,0.6413,0.6432,0.6432,0.6451,0.6451,0.6452]},{"header":{"parameterUnit":"m.s-1","parameterCategory":1,"la1":30.2991,"la2":30.254,"lo1":-89.0895,"lo2":-89.0444,"dy":0.0017,"dx":0.0017,"nx":28,"ny":28,"refTime":"2024-11-22T09:00:00:Z","depth":0,"parameterNumber":3,"parameterNumberName":"V-component_of_WINDS"},"data":[0,0,0,0,0,0,0,0,0,0,0,0,0,0,0,0,0,0,0,0,0,0,0,0,0,0,0,0,0,0,0,0,0,0,0,0,0,0,0,0,0,0,0,0,0,0,0,0,0,0,0,0,0,0,0,0,0,0,1.2749,1.2749,0,1.2711,1.2711,1.2711,1.2653,1.2652,1.2651,1.265,1.2612,1.2612,1.2612,0,0,0,0,0,0,0,0,0,0,0,0,0,1.2771,1.2771,1.2749,1.2749,1.2748,1.2712,1.2711,1.2711,1.2653,1.2652,1.265,1.2649,1.2612,1.2612,1.2612,0,0,0,0,0,0,0,0,0,0,0,0,0,1.275,1.2771,1.2749,1.2715,1.2711,1.2712,1.2711,1.271,1.2653,1.2652,1.265,1.2649,1.2612,1.2612,1.2612,1.2643,0,0,1.2612,1.2612,0,0,0,0,0,0,0,0,1.2751,1.2749,1.272,1.2717,1.2713,1.2685,1.2705,1.2688,1.2654,1.2675,1.265,1.2648,1.2638,1.2635,1.2632,1.2641,1.2639,1.2612,1.2612,1.2612,1.2612,0,0,0,0,0,0,0,1.2753,1.2751,1.2734,1.272,1.2716,1.2701,1.2697,1.2701,1.2666,1.2673,1.2669,1.2665,1.2636,1.2632,1.2631,1.2639,1.2612,1.2612,1.2612,1.2612,1.267,1.2672,0,0,0,0,0,0,1.2759,1.2752,1.2735,1.2733,1.2729,1.2702,1.2697,1.2696,1.2666,1.2659,1.2667,1.2663,1.2633,1.2631,1.2629,1.2662,1.2612,1.2612,1.2612,1.2668,1.267,1.2672,0,0,0,0,0,0,1.276,1.2758,1.2737,1.2741,1.2738,1.2704,1.2703,1.2696,1.2692,1.2661,1.2654,1.267,1.2632,1.2629,1.2639,1.266,1.2612,1.2612,1.2667,1.2669,1.2671,1.273,0,0,0,0,0,0,1.2761,1.2759,1.277,1.2742,1.2738,1.2748,1.2704,1.2696,1.2692,1.2687,1.2662,1.2656,1.263,1.264,1.2639,1.2659,1.2612,1.2665,1.2668,1.267,1.2726,1.2734,1.2741,0,0,0,0,0,1.2762,1.2789,1.2771,1.277,1.2751,1.275,1.2747,1.2717,1.2694,1.2705,1.2685,1.2657,1.2658,1.2641,1.264,1.2661,1.2663,1.2667,1.267,1.2723,1.2733,1.2741,0,0,0,0,0,0,1.2821,1.2785,1.2765,1.2783,1.277,1.274,1.2753,1.2728,1.2721,1.2716,1.2679,1.2674,1.2689,1.2675,1.2658,1.2688,1.2656,1.266,1.2696,1.2706,1.2713,1.2716,1.2612,0,0,0,0,0,1.2836,1.2838,1.2806,1.2826,1.282,1.2788,1.2786,1.2763,1.2748,1.2742,1.2722,1.2709,1.2706,1.2705,1.27,1.2724,1.2717,1.2737,1.2744,1.2751,1.2754,1.2765,1.2773,1.2684,1.2684,1.2684,0,0,1.2868,1.2848,1.2852,1.2837,1.2824,1.2826,1.2783,1.2788,1.2789,1.2743,1.2752,1.2736,1.2718,1.2735,1.2742,1.2725,1.2777,1.2755,1.276,1.2761,1.2769,1.2778,1.2785,1.2686,1.2686,1.2685,0,0,1.2927,1.2912,1.2927,1.2914,1.2895,1.2873,1.2876,1.285,1.2838,1.2845,1.281,1.2811,1.2807,1.2796,1.2789,1.2842,1.2816,1.2842,1.2881,1.2892,1.2899,1.2905,1.2923,1.2931,1.2845,1.2846,1.2846,0,1.2969,1.2971,1.2937,1.2944,1.2938,1.2895,1.291,1.2899,1.2879,1.2876,1.2858,1.2851,1.2836,1.2849,1.2862,1.2858,1.2861,1.2845,1.29,1.2906,1.2911,1.2929,1.2936,1.2849,1.2849,1.2848,1.2848,0,1.3023,1.3025,1.3039,1.3021,1.3017,1.3027,1.2994,1.2994,1.2972,1.2952,1.296,1.294,1.2931,1.2932,1.291,1.2942,1.2932,1.2907,1.2874,1.2924,1.2939,1.2946,1.2854,1.2852,1.2851,1.2851,0,0,1.312,1.3081,1.3087,1.3078,1.3052,1.3053,1.3061,1.3052,1.3052,1.3039,1.3045,1.3042,1.3019,1.3011,1.2988,1.2997,1.304,1.2971,1.297,1.2985,1.3072,1.3091,1.31,1.3022,1.3023,1.3024,1.3074,0,1.3174,1.3185,1.3155,1.3174,1.3175,1.3134,1.314,1.3126,1.3107,1.3105,1.3084,1.3083,1.3052,1.3047,1.3055,1.3033,1.3057,1.3029,1.3027,1.3027,1.3033,1.3108,1.3128,1.3176,1.308,1.3081,1.3082,0,1.3239,1.3229,1.3248,1.3221,1.322,1.3227,1.3215,1.3213,1.3195,1.3181,1.3172,1.3145,1.315,1.3118,1.3125,1.3106,1.3103,1.3093,1.3094,1.3093,1.3058,1.3109,1.3191,1.3198,1.3091,1.309,1.309,0,1.3307,1.3299,1.3309,1.3302,1.327,1.3276,1.3263,1.3243,1.3239,1.3228,1.3225,1.3215,1.321,1.3203,1.3173,1.3153,1.3183,1.3149,1.3172,1.3172,1.3181,1.3181,1.3263,1.3178,1.3178,1.3178,1.3178,0,1.3371,1.3384,1.3339,1.3345,1.3359,1.3323,1.3337,1.332,1.3303,1.3305,1.3268,1.3271,1.3231,1.3229,1.3206,1.3215,1.3212,1.3201,1.3195,1.3204,1.3206,1.3202,1.3198,1.318,1.318,1.3179,1.3179,0,1.345,1.342,1.3428,1.3397,1.339,1.3401,1.3374,1.3379,1.3357,1.336,1.3359,1.3325,1.3321,1.329,1.3279,1.3263,1.328,1.3267,1.3287,1.3283,1.3307,1.3305,1.339,1.34,1.3309,1.331,1.3311,0,1.3493,1.3502,1.3471,1.347,1.3459,1.3457,1.3452,1.3417,1.3413,1.3392,1.3399,1.3392,1.3384,1.3379,1.3354,1.3345,1.3331,1.3362,1.333,1.3339,1.3331,1.3331,1.3332,1.3369,1.337,1.3371,1.3372,0,1.3572,1.3556,1.3551,1.354,1.3535,1.3525,1.3512,1.3513,1.3474,1.3472,1.3467,1.3461,1.3449,1.3442,1.3428,1.3414,1.3386,1.3382,1.3386,1.3397,1.3407,1.3402,1.3306,1.338,1.3379,1.3379,1.3378,1.3378,1.3634,1.364,1.3619,1.3614,1.3601,1.3589,1.3592,1.357,1.3565,1.3553,1.3532,1.353,1.351,1.3489,1.3477,1.3474,1.3458,1.3465,1.3467,1.3469,1.3474,1.3407,1.3472,1.3471,1.3471,1.3471,1.3471,0,1.3711,1.3695,1.3691,1.3674,1.367,1.3643,1.3628,1.3626,1.3625,1.3608,1.3601,1.3595,1.3588,1.3561,1.3551,1.3554,1.3541,1.3552,1.3552,1.3549,1.3489,1.3486,1.3563,1.3563,1.3563,1.3563,1.3563,1.3563,1.3751,1.3759,1.3741,1.3743,1.3726,1.3724,1.3717,1.3707,1.3693,1.3688,1.3682,1.3664,1.3643,1.3631,1.3623,1.3615,1.3613,1.3629,1.3617,1.3562,1.3553,1.3545,1.3542,1.3629,1.3629,1.3677,1.3677,1.3678]}]]